TimeCDT,TemperatureF,Dew PointF,Humidity,Sea Level PressureIn,VisibilityMPH,Wind Direction,Wind SpeedMPH,Gust SpeedMPH,PrecipitationIn,Events,Conditions,WindDirDegrees,DateUTC
12:56 AM,73.0,66.9,81,29.94,-9999.0,North,11.5,-,N/A,,Unknown,350,2013-06-28 05:56:00
1:56 AM,72.0,69.1,91,29.94,-9999.0,North,11.5,-,N/A,,Unknown,360,2013-06-28 06:56:00
2:56 AM,72.0,69.1,91,29.94,-9999.0,North,9.2,-,N/A,,Unknown,350,2013-06-28 07:56:00
3:56 AM,71.1,69.1,93,29.94,-9999.0,North,6.9,-,N/A,,Unknown,10,2013-06-28 08:56:00
4:56 AM,72.0,69.1,91,29.94,-9999.0,NNE,8.1,-,N/A,,Unknown,20,2013-06-28 09:56:00
5:56 AM,71.1,68.0,90,29.95,-9999.0,North,3.5,-,N/A,,Unknown,360,2013-06-28 10:56:00
6:56 AM,71.1,66.9,87,30.00,-9999.0,North,5.8,-,N/A,,Unknown,360,2013-06-28 11:56:00
7:56 AM,73.9,68.0,82,30.03,-9999.0,North,9.2,-,N/A,,Unknown,360,2013-06-28 12:56:00
8:56 AM,77.0,68.0,74,30.06,-9999.0,NNW,6.9,-,N/A,,Unknown,340,2013-06-28 13:56:00
9:56 AM,81.0,66.9,62,30.04,-9999.0,North,6.9,-,N/A,,Unknown,350,2013-06-28 14:56:00
10:56 AM,84.0,66.9,56,30.03,-9999.0,NW,4.6,-,N/A,,Unknown,320,2013-06-28 15:56:00
11:56 AM,88.0,64.0,45,30.01,-9999.0,NW,3.5,-,N/A,,Unknown,310,2013-06-28 16:56:00
12:56 PM,91.9,60.1,34,29.98,-9999.0,North,4.6,-,N/A,,Unknown,10,2013-06-28 17:56:00
1:56 PM,95.0,57.0,28,29.96,-9999.0,North,8.1,-,N/A,,Unknown,350,2013-06-28 18:56:00
2:56 PM,97.0,57.0,26,29.94,-9999.0,North,16.1,20.7,N/A,,Unknown,360,2013-06-28 19:56:00
3:56 PM,97.0,59.0,28,29.91,-9999.0,North,10.4,-,N/A,,Unknown,360,2013-06-28 20:56:00
4:56 PM,97.0,59.0,28,29.88,-9999.0,NNE,10.4,-,N/A,,Unknown,30,2013-06-28 21:56:00
5:56 PM,97.0,57.0,26,29.88,-9999.0,North,16.1,-,N/A,,Unknown,10,2013-06-28 22:56:00
6:56 PM,95.0,60.1,31,29.88,-9999.0,NNE,11.5,-,N/A,,Unknown,20,2013-06-28 23:56:00
7:56 PM,91.9,59.0,33,29.88,-9999.0,NNE,11.5,-,N/A,,Unknown,30,2013-06-29 00:56:00
8:56 PM,87.1,60.1,40,29.90,-9999.0,NE,8.1,-,N/A,,Unknown,50,2013-06-29 01:56:00
9:56 PM,81.0,60.1,49,29.91,-9999.0,ENE,9.2,-,N/A,,Unknown,60,2013-06-29 02:56:00
10:56 PM,78.1,60.1,54,29.91,-9999.0,ENE,9.2,-,N/A,,Unknown,60,2013-06-29 03:56:00
11:56 PM,75.9,60.1,58,29.92,-9999.0,Calm,Calm,-,N/A,,Unknown,0,2013-06-29 04:56:00